When you browse on this site, cookies collect data to enhance your experience and personalize the content and advertising you see.
Visit our Privacy Policy to learn more. By continuing to use the site, you agree to this use of cookies and data.
  • In Österreich
  • Länderverzeichnis
  • Für 7 Tage
  • Wassertemperatur
  • Wetterkarte
  • News
  • Widgets
  • user-avatar
    Anmelden

    Stündliche Wetter San Marcos

    Heute, 17 September, Dienstag

    Zeit Temperatur Niederschläge Wind Luftdruck Luftfeuchtigkeit
    00:00 +13°C° 0 mm 0 m/S 596 mmHg 95%
    01:00 +13°C° 0 mm 0 m/S 595 mmHg 96%
    02:00 +13°C° 0 mm 0 m/S 595 mmHg 96%
    03:00 +13°C° 0 mm 0 m/S 595 mmHg 95%
    04:00 +13°C° 0 mm 0 m/S 595 mmHg 94%
    05:00 +13°C° 0 mm 0 m/S 596 mmHg 94%
    06:00 +14°C° 0 mm 0 m/S 596 mmHg 89%
    07:00 +18°C° 0 mm 1 m/S 597 mmHg 84%
    08:00 +19°C° 0 mm 1 m/S 598 mmHg 78%
    09:00 +20°C° 0 mm 1 m/S 598 mmHg 74%
    10:00 +21°C° 0 mm 2 m/S 599 mmHg 69%
    11:00 +23°C° 0 mm 2 m/S 599 mmHg 64%
    12:00 +22°C° 0.3 mm 3 m/S 598 mmHg 63%
    13:00 +24°C° 0.3 mm 3 m/S 598 mmHg 63%
    14:00 +24°C° 0.3 mm 3 m/S 597 mmHg 63%
    15:00 +22°C° 0.2 mm 3 m/S 597 mmHg 67%
    16:00 +22°C° 0.2 mm 3 m/S 597 mmHg 70%
    17:00 +21°C° 0.2 mm 3 m/S 596 mmHg 73%
    18:00 +20°C° 0.7 mm 2 m/S 596 mmHg 79%
    19:00 +18°C° 0.7 mm 2 m/S 596 mmHg 86%
    20:00 +18°C° 0.7 mm 1 m/S 596 mmHg 92%
    21:00 +16°C° 0.1 mm 1 m/S 596 mmHg 93%
    22:00 +16°C° 0.1 mm 1 m/S 596 mmHg 95%
    23:00 +14°C° 0.1 mm 0 m/S 596 mmHg 96%

    Morgen, 18 September, Mittwoch

    Zeit Temperatur Niederschläge Wind Luftdruck Luftfeuchtigkeit
    00:00 +14°C° 0 mm 0 m/S 596 mmHg 96%
    01:00 +14°C° 0 mm 0 m/S 595 mmHg 96%
    02:00 +14°C° 0 mm 0 m/S 595 mmHg 97%
    03:00 +14°C° 0 mm 0 m/S 595 mmHg 96%
    04:00 +15°C° 0 mm 0 m/S 596 mmHg 94%
    05:00 +15°C° 0 mm 0 m/S 596 mmHg 93%
    06:00 +16°C° 0 mm 0 m/S 596 mmHg 88%
    07:00 +17°C° 0 mm 0 m/S 597 mmHg 84%
    08:00 +19°C° 0 mm 1 m/S 597 mmHg 80%
    09:00 +21°C° 0.2 mm 1 m/S 598 mmHg 73%
    10:00 +23°C° 0.2 mm 1 m/S 598 mmHg 67%
    11:00 +24°C° 0.2 mm 1 m/S 599 mmHg 60%
    12:00 +25°C° 1.8 mm 2 m/S 598 mmHg 61%
    13:00 +25°C° 1.8 mm 2 m/S 598 mmHg 62%
    14:00 +25°C° 1.8 mm 3 m/S 597 mmHg 63%
    15:00 +24°C° 2.8 mm 2 m/S 597 mmHg 69%
    16:00 +23°C° 2.8 mm 2 m/S 596 mmHg 74%
    17:00 +22°C° 2.8 mm 1 m/S 596 mmHg 80%
    18:00 +21°C° 2.2 mm 1 m/S 596 mmHg 83%
    19:00 +20°C° 2.2 mm 1 m/S 597 mmHg 86%
    20:00 +19°C° 2.2 mm 1 m/S 597 mmHg 90%
    21:00 +19°C° 1.4 mm 1 m/S 597 mmHg 90%
    22:00 +18°C° 1.4 mm 1 m/S 597 mmHg 91%
    23:00 +18°C° 1.4 mm 1 m/S 597 mmHg 92%

    übermorgen, 19 September, Donnerstag

    Zeit Temperatur Niederschläge Wind Luftdruck Luftfeuchtigkeit
    00:00 +18°C° 0.2 mm 1 m/S 596 mmHg 91%
    01:00 +18°C° 0.2 mm 1 m/S 596 mmHg 91%
    02:00 +18°C° 0.2 mm 1 m/S 596 mmHg 91%
    03:00 +16°C° 0 mm 1 m/S 595 mmHg 91%
    04:00 +15°C° 0 mm 1 m/S 595 mmHg 91%
    05:00 +14°C° 0 mm 0 m/S 595 mmHg 92%
    06:00 +16°C° 0 mm 1 m/S 596 mmHg 86%
    07:00 +19°C° 0 mm 1 m/S 596 mmHg 80%
    08:00 +20°C° 0 mm 1 m/S 597 mmHg 75%
    09:00 +22°C° 0 mm 1 m/S 597 mmHg 69%
    10:00 +23°C° 0 mm 2 m/S 597 mmHg 62%
    11:00 +25°C° 0 mm 3 m/S 598 mmHg 56%
    12:00 +25°C° 0.4 mm 3 m/S 597 mmHg 57%
    13:00 +25°C° 0.4 mm 4 m/S 597 mmHg 58%
    14:00 +25°C° 0.4 mm 5 m/S 596 mmHg 59%
    15:00 +23°C° 1.1 mm 5 m/S 596 mmHg 66%
    16:00 +21°C° 1.1 mm 4 m/S 595 mmHg 73%
    17:00 +20°C° 1.1 mm 4 m/S 595 mmHg 79%
    18:00 +19°C° 0.6 mm 3 m/S 595 mmHg 83%
    19:00 +18°C° 0.6 mm 2 m/S 595 mmHg 87%
    20:00 +18°C° 0.6 mm 1 m/S 595 mmHg 91%
    21:00 +16°C° 0 mm 1 m/S 595 mmHg 92%
    22:00 +16°C° 0 mm 1 m/S 595 mmHg 94%
    23:00 +15°C° 0 mm 1 m/S 595 mmHg 95%

    20 September, Freitag

    Zeit Temperatur Niederschläge Wind Luftdruck Luftfeuchtigkeit
    00:00 +14°C° 0 mm 0 m/S 594 mmHg 96%
    01:00 +14°C° 0 mm 0 m/S 594 mmHg 96%
    02:00 +13°C° 0 mm 0 m/S 594 mmHg 96%
    03:00 +13°C° 0 mm 0 m/S 594 mmHg 96%
    04:00 +13°C° 0 mm 0 m/S 594 mmHg 95%
    05:00 +14°C° 0 mm 0 m/S 594 mmHg 95%
    06:00 +14°C° 0 mm 0 m/S 595 mmHg 91%
    07:00 +15°C° 0 mm 0 m/S 596 mmHg 88%
    08:00 +16°C° 0 mm 0 m/S 596 mmHg 84%
    09:00 +20°C° 0 mm 1 m/S 597 mmHg 75%
    10:00 +22°C° 0 mm 1 m/S 597 mmHg 66%
    11:00 +24°C° 0 mm 2 m/S 597 mmHg 58%
    12:00 +24°C° 0 mm 3 m/S 597 mmHg 54%
    13:00 +25°C° 0 mm 3 m/S 597 mmHg 51%
    14:00 +26°C° 0 mm 4 m/S 597 mmHg 48%
    15:00 +25°C° 0.1 mm 4 m/S 597 mmHg 56%
    16:00 +22°C° 0.1 mm 4 m/S 596 mmHg 65%
    17:00 +21°C° 0.1 mm 3 m/S 596 mmHg 73%
    18:00 +19°C° 0.3 mm 3 m/S 596 mmHg 80%
    19:00 +18°C° 0.3 mm 2 m/S 596 mmHg 86%
    20:00 +16°C° 0.3 mm 2 m/S 596 mmHg 93%
    21:00 +16°C° 0 mm 1 m/S 596 mmHg 94%
    22:00 +15°C° 0 mm 1 m/S 596 mmHg 95%
    23:00 +15°C° 0 mm 1 m/S 596 mmHg 96%

    21 September, Samstag

    Zeit Temperatur Niederschläge Wind Luftdruck Luftfeuchtigkeit
    00:00 +14°C° 0 mm 0 m/S 596 mmHg 96%
    01:00 +14°C° 0 mm 0 m/S 596 mmHg 96%
    02:00 +14°C° 0 mm 0 m/S 596 mmHg 95%
    03:00 +14°C° 0 mm 0 m/S 596 mmHg 93%
    04:00 +15°C° 0 mm 0 m/S 596 mmHg 90%
    05:00 +15°C° 0 mm 0 m/S 596 mmHg 88%
    06:00 +16°C° 0 mm 0 m/S 597 mmHg 83%
    07:00 +16°C° 0 mm 0 m/S 597 mmHg 78%
    08:00 +17°C° 0 mm 0 m/S 598 mmHg 74%
    09:00 +21°C° 0 mm 1 m/S 598 mmHg 65%
    10:00 +23°C° 0 mm 2 m/S 598 mmHg 57%
    11:00 +24°C° 0 mm 2 m/S 599 mmHg 49%
    12:00 +25°C° 0 mm 3 m/S 598 mmHg 47%
    13:00 +25°C° 0 mm 4 m/S 598 mmHg 45%
    14:00 +26°C° 0 mm 4 m/S 597 mmHg 44%
    15:00 +25°C° 0 mm 4 m/S 597 mmHg 53%
    16:00 +22°C° 0 mm 4 m/S 597 mmHg 62%
    17:00 +21°C° 0 mm 4 m/S 596 mmHg 70%
    18:00 +19°C° 0 mm 3 m/S 596 mmHg 78%
    19:00 +18°C° 0 mm 2 m/S 596 mmHg 85%
    20:00 +16°C° 0 mm 1 m/S 596 mmHg 92%
    21:00 +16°C° 0 mm 1 m/S 596 mmHg 93%
    22:00 +15°C° 0 mm 1 m/S 596 mmHg 95%
    23:00 +14°C° 0 mm 0 m/S 596 mmHg 96%

    22 September, Sonntag

    Zeit Temperatur Niederschläge Wind Luftdruck Luftfeuchtigkeit
    00:00 +13°C° 0 mm 0 m/S 596 mmHg 96%
    01:00 +13°C° 0 mm 0 m/S 595 mmHg 96%
    02:00 +13°C° 0 mm 0 m/S 595 mmHg 96%
    03:00 +13°C° 0 mm 0 m/S 595 mmHg 95%
    04:00 +13°C° 0 mm 0 m/S 595 mmHg 95%
    05:00 +12°C° 0 mm 0 m/S 595 mmHg 94%
    06:00 +14°C° 0 mm 0 m/S 596 mmHg 88%
    07:00 +16°C° 0 mm 0 m/S 597 mmHg 81%
    08:00 +17°C° 0 mm 0 m/S 598 mmHg 74%
    09:00 +21°C° 0 mm 1 m/S 598 mmHg 68%
    10:00 +23°C° 0 mm 2 m/S 599 mmHg 61%
    11:00 +25°C° 0 mm 2 m/S 599 mmHg 54%
    12:00 +25°C° 0 mm 3 m/S 598 mmHg 51%
    13:00 +26°C° 0 mm 4 m/S 598 mmHg 47%
    14:00 +26°C° 0 mm 4 m/S 598 mmHg 44%
    15:00 +25°C° 0 mm 4 m/S 597 mmHg 52%
    16:00 +22°C° 0 mm 4 m/S 597 mmHg 60%
    17:00 +21°C° 0 mm 4 m/S 596 mmHg 68%
    18:00 +19°C° 0 mm 3 m/S 596 mmHg 76%
    19:00 +18°C° 0 mm 2 m/S 596 mmHg 85%
    20:00 +16°C° 0 mm 1 m/S 596 mmHg 93%
    21:00 +16°C° 0 mm 1 m/S 596 mmHg 94%
    22:00 +15°C° 0 mm 1 m/S 596 mmHg 95%
    23:00 +13°C° 0 mm 0 m/S 596 mmHg 96%
    Mehr zeigen